Weather History for Hyannis, MA

Change the Weather History Date:

Sunday, March 3, 2013

  Actual Average Record
Temperature  
Mean Temperature 38 °F -  
Max Temperature 42 °F 41 °F 57 °F (1985)
Min Temperature 35 °F 27 °F 6 °F (1950)
Degree Days  
Heating Degree Days 26    
Moisture  
Dew Point 30 °F    
Average Humidity 73    
Maximum Humidity 86    
Minimum Humidity 61    
Precipitation  
Precipitation 0.00 in - - ()
Sea Level Pressure  
Sea Level Pressure 29.58 in    
Wind  
Wind Speed 6 mph (NNW)    
Max Wind Speed 12 mph    
Max Gust Speed 17 mph    
Visibility 10 miles    
Events      
Averages and records for this station are not official NWS values.
T = Trace of Precipitation, MM = Missing Value Source: NWS Daily Summary

Daily Weather History Graph

Daily Weather History Graph

Search for Another Location

Airport:

Trip Planner

Search our weather history database for the weather conditions in past years. The results will help you decide how hot, cold, wet, or windy it might be!

Date:

Astronomy

Mar. 03, 2013 Rise Set
Actual Time 6:12 AM EST 5:34 PM EST
Civil Twilight 5:44 AM EST 6:02 PM EST
Nautical Twilight 5:12 AM EST 6:34 PM EST
Astronomical Twilight 4:40 AM EST 7:06 PM EST
Moon No Moon Rise 9:19 AM EST (3/3)
Length of Visible Light 12h 17m
Length of Day
11h 21m
Waning Gibbous, 64% of the Moon is Illuminated
Mar 3
Waning Gibbous
Mar 4
Last Quarter
Mar 11
New
Mar 19
First Quarter
Mar 27
Full

Hourly Weather History & Observations

Time (EST) Temp. Windchill Dew Point Humidity Pressure Visibility Wind Dir Wind Speed Gust Speed Precip Events Conditions
12:56 AM 37.9 °F 30.5 °F 32.0 °F 79% 29.61 in 10.0 mi NNW 11.5 mph - N/A   Overcast
1:03 AM 37.4 °F 30.8 °F 32.0 °F 81% 29.61 in 10.0 mi NNW 9.2 mph 17.3 mph N/A   Overcast
1:56 AM 37.0 °F 31.6 °F 33.1 °F 86% 29.60 in 10.0 mi NNW 6.9 mph - 0.00 in   Overcast
2:36 AM 37.4 °F 32.1 °F 32.0 °F 81% 29.59 in 10.0 mi NNW 6.9 mph - N/A   Overcast
2:56 AM 37.9 °F 32.7 °F 30.9 °F 76% 29.59 in 10.0 mi NNW 6.9 mph - N/A   Overcast
3:56 AM 37.0 °F 32.4 °F 30.0 °F 76% 29.59 in 10.0 mi NW 5.8 mph - N/A   Overcast
4:37 AM 37.4 °F 32.8 °F 28.4 °F 70% 29.59 in 10.0 mi NNW 5.8 mph - N/A   Overcast
4:56 AM 37.0 °F 33.3 °F 28.9 °F 73% 29.60 in 10.0 mi NNW 4.6 mph - N/A   Overcast
5:56 AM 36.0 °F 33.3 °F 28.0 °F 73% 29.60 in 10.0 mi NW 3.5 mph - N/A   Overcast
6:56 AM 36.0 °F 32.1 °F 28.0 °F 73% 29.61 in 10.0 mi WNW 4.6 mph - N/A   Overcast
7:56 AM 36.0 °F 31.1 °F 28.0 °F 73% 29.61 in 10.0 mi NNW 5.8 mph - N/A   Overcast
8:56 AM 37.0 °F 31.0 °F 28.0 °F 70% 29.61 in 10.0 mi North 8.1 mph - N/A   Overcast
9:56 AM 37.9 °F 33.5 °F 28.0 °F 68% 29.60 in 10.0 mi NNW 5.8 mph - N/A   Overcast
10:56 AM 39.0 °F - 28.9 °F 67% 29.59 in 10.0 mi Calm Calm - N/A   Overcast
11:56 AM 41.0 °F 38.0 °F 30.0 °F 65% 29.58 in 10.0 mi NNE 4.6 mph - N/A   Overcast
12:56 PM 41.0 °F 38.0 °F 30.0 °F 65% 29.56 in 10.0 mi NNE 4.6 mph - N/A   Overcast
1:56 PM 41.0 °F - 30.0 °F 65% 29.55 in 10.0 mi Calm Calm - N/A   Overcast
2:35 PM 41.0 °F 36.4 °F 30.2 °F 65% 29.54 in 10.0 mi SSW 6.9 mph - N/A   Overcast
2:56 PM 41.0 °F 38.0 °F 30.0 °F 65% 29.55 in 10.0 mi SW 4.6 mph - N/A   Overcast
3:10 PM 42.8 °F 38.6 °F 30.2 °F 61% 29.54 in 10.0 mi NNE 6.9 mph - N/A   Overcast
3:56 PM 39.9 °F 37.8 °F 30.0 °F 68% 29.55 in 10.0 mi North 3.5 mph - N/A   Overcast
4:56 PM 39.0 °F 35.7 °F 30.9 °F 73% 29.56 in 10.0 mi NNE 4.6 mph - N/A   Overcast
5:56 PM 37.9 °F - 30.9 °F 76% 29.57 in 10.0 mi Calm Calm - N/A   Overcast
6:56 PM 37.0 °F - 28.0 °F 70% 29.57 in 10.0 mi Calm Calm - N/A   Overcast
7:56 PM 37.0 °F - 28.9 °F 73% 29.57 in 10.0 mi Calm Calm - N/A   Overcast
8:56 PM 37.0 °F - 28.9 °F 73% 29.57 in 10.0 mi Calm Calm - N/A   Overcast
9:56 PM 37.0 °F 34.5 °F 30.0 °F 76% 29.57 in 10.0 mi WNW 3.5 mph - N/A   Overcast
10:35 PM 37.4 °F 31.4 °F 30.2 °F 75% 29.56 in 10.0 mi NW 8.1 mph - N/A   Overcast
10:56 PM 36.0 °F 30.3 °F 30.9 °F 82% 29.57 in 10.0 mi NW 6.9 mph - N/A   Overcast
11:37 PM 35.6 °F 29.2 °F 30.2 °F 81% 29.56 in 10.0 mi NW 8.1 mph - N/A   Overcast
11:48 PM 35.6 °F 28.6 °F 30.2 °F 81% 29.56 in 10.0 mi NW 9.2 mph - N/A   Overcast
11:56 PM 35.1 °F 29.3 °F 30.9 °F 85% 29.57 in 10.0 mi NW 6.9 mph - N/A   Overcast